TimeCDT,TemperatureF,Dew PointF,Humidity,Sea Level PressureIn,VisibilityMPH,Wind Direction,Wind SpeedMPH,Gust SpeedMPH,PrecipitationIn,Events,Conditions,WindDirDegrees,DateUTC
12:54 AM,50.0,30.2,47,29.92,10.0,NW,11.5,-,N/A,,Overcast,310,2011-10-18 05:54:00
1:54 AM,50.0,30.2,47,29.92,10.0,NW,8.1,-,N/A,,Overcast,310,2011-10-18 06:54:00
2:54 AM,48.9,30.9,50,29.94,10.0,NW,8.1,-,N/A,,Overcast,310,2011-10-18 07:54:00
3:54 AM,48.0,30.0,50,29.93,10.0,NW,11.5,-,N/A,,Overcast,320,2011-10-18 08:54:00
4:54 AM,46.9,30.0,52,29.93,10.0,NNW,9.2,-,N/A,,Overcast,330,2011-10-18 09:54:00
5:54 AM,46.4,30.2,53,29.93,10.0,NNW,11.5,-,N/A,,Overcast,330,2011-10-18 10:54:00
6:54 AM,46.0,30.0,54,29.95,10.0,NNW,9.2,-,N/A,,Overcast,330,2011-10-18 11:54:00
7:54 AM,44.1,30.0,58,29.97,10.0,NNW,11.5,-,N/A,,Overcast,340,2011-10-18 12:54:00
8:54 AM,42.1,30.0,62,29.99,10.0,NNW,8.1,-,N/A,,Overcast,340,2011-10-18 13:54:00
9:54 AM,44.1,30.9,60,30.00,10.0,NNW,9.2,-,N/A,,Overcast,340,2011-10-18 14:54:00
10:54 AM,46.9,33.1,59,30.00,10.0,North,17.3,-,N/A,,Overcast,360,2011-10-18 15:54:00
11:31 AM,46.4,33.8,62,30.00,10.0,North,16.1,23.0,N/A,,Overcast,350,2011-10-18 16:31:00
11:54 AM,46.9,33.1,59,30.01,10.0,North,18.4,27.6,N/A,,Overcast,360,2011-10-18 16:54:00
12:54 PM,46.0,33.1,61,30.00,10.0,NNW,15.0,-,N/A,,Overcast,340,2011-10-18 17:54:00
1:31 PM,46.4,33.8,62,29.98,10.0,NNW,20.7,25.3,N/A,,Overcast,340,2011-10-18 18:31:00
1:54 PM,46.0,34.0,63,29.99,10.0,NNW,17.3,25.3,N/A,,Overcast,340,2011-10-18 18:54:00
2:54 PM,46.0,34.0,63,30.00,10.0,NNW,13.8,-,N/A,,Overcast,340,2011-10-18 19:54:00
3:54 PM,45.0,33.1,63,30.01,10.0,NNW,13.8,21.9,N/A,,Overcast,340,2011-10-18 20:54:00
4:54 PM,45.0,33.1,63,30.01,10.0,North,16.1,20.7,N/A,,Overcast,360,2011-10-18 21:54:00
5:54 PM,46.9,32.0,56,30.01,10.0,North,11.5,18.4,N/A,,Overcast,360,2011-10-18 22:54:00
6:54 PM,44.1,32.0,63,30.03,10.0,NNE,6.9,-,N/A,,Scattered Clouds,20,2011-10-18 23:54:00
7:54 PM,43.0,32.0,65,30.04,10.0,North,6.9,-,N/A,,Scattered Clouds,10,2011-10-19 00:54:00
8:54 PM,39.9,30.9,70,30.05,10.0,NNE,6.9,-,N/A,,Clear,20,2011-10-19 01:54:00
9:54 PM,39.9,30.9,70,30.04,10.0,North,5.8,-,N/A,,Partly Cloudy,350,2011-10-19 02:54:00
10:54 PM,37.9,30.9,76,30.03,10.0,NNW,8.1,-,N/A,,Clear,330,2011-10-19 03:54:00
11:54 PM,36.0,30.0,79,30.02,10.0,NW,6.9,-,N/A,,Clear,320,2011-10-19 04:54:00